Weather History for KTPA - October, 2013

Change the Weather History Date:

Wednesday, October 2, 2013

  Actual Average Record
Temperature  
Mean Temperature 82 °F 79 °F  
Max Temperature 90 °F 87 °F 93 °F (1958)
Min Temperature 73 °F 72 °F 55 °F (1920)
Degree Days  
Heating Degree Days 0 0  
Month to date heating degree days 0 0  
Since 1 July heating degree days 0 0  
Cooling Degree Days 17 14  
Month to date cooling degree days 35 29  
Year to date cooling degree days 3187 3045  
Growing Degree Days 32 (Base 50)    
Moisture  
Dew Point 68 °F    
Average Humidity 69    
Maximum Humidity 87    
Minimum Humidity 50    
Precipitation  
Precipitation 0.00 in 0.12 in 1.52 in (1972)
Month to date precipitation 0.00 0.24  
Year to date precipitation 49.89 40.26  
Sea Level Pressure  
Sea Level Pressure 30.04 in    
Wind  
Wind Speed 6 mph (ENE)    
Max Wind Speed 12 mph    
Max Gust Speed 39 mph    
Visibility 10 miles    
Events      
T = Trace of Precipitation, MM = Missing Value Source: NWS Daily Summary

Daily Weather History Graph

Daily Weather History Graph

Search for Another Location

Airport or City:

Trip Planner

Search our weather history database for the weather conditions in past years. The results will help you decide how hot, cold, wet, or windy it might be!

Date:

Astronomy

Oct. 02, 2013 Rise Set
Actual Time 7:23 AM EDT 7:14 PM EDT
Civil Twilight 7:00 AM EDT 7:38 PM EDT
Nautical Twilight 6:33 AM EDT 8:05 PM EDT
Astronomical Twilight 6:05 AM EDT 8:32 PM EDT
Moon 5:05 AM EDT (10/2) 5:42 PM EDT (10/2)
Length of Visible Light 12h 37m
Length of Day
11h 51m
Waning Crescent, 6% of the Moon is Illuminated
Oct 2
Waning Crescent
Oct 4
New
Oct 11
First Quarter
Oct 18
Full
Oct 26
Last Quarter

Hourly Weather History & Observations

Time (EDT) Temp. Heat Index Dew Point Humidity Pressure Visibility Wind Dir Wind Speed Gust Speed Precip Events Conditions
12:53 AM 77.0 °F - 70.0 °F 79% 30.06 in 10.0 mi ENE 4.6 mph - N/A   Clear
1:53 AM 75.9 °F - 69.1 °F 79% 30.06 in 10.0 mi Variable 3.5 mph - N/A   Clear
2:53 AM 75.0 °F - 69.1 °F 82% 30.05 in 10.0 mi ENE 4.6 mph - N/A   Clear
3:53 AM 75.0 °F - 69.1 °F 82% 30.04 in 10.0 mi ENE 4.6 mph - N/A   Clear
4:53 AM 73.9 °F - 69.1 °F 85% 30.04 in 10.0 mi ENE 4.6 mph - N/A   Clear
5:53 AM 73.9 °F - 69.1 °F 85% 30.03 in 10.0 mi ENE 4.6 mph - N/A   Clear
6:53 AM 73.0 °F - 68.0 °F 84% 30.04 in 10.0 mi ENE 3.5 mph - N/A   Partly Cloudy
7:53 AM 73.9 °F - 68.0 °F 82% 30.05 in 10.0 mi NE 4.6 mph - N/A   Partly Cloudy
8:53 AM 75.9 °F - 69.1 °F 79% 30.06 in 10.0 mi ENE 6.9 mph - N/A   Partly Cloudy
9:53 AM 80.1 °F 83.2 °F 70.0 °F 71% 30.07 in 10.0 mi ENE 6.9 mph - N/A   Partly Cloudy
10:53 AM 82.0 °F 85.9 °F 70.0 °F 67% 30.07 in 10.0 mi East 8.1 mph - N/A   Scattered Clouds
11:53 AM 84.9 °F 88.8 °F 69.1 °F 59% 30.06 in 10.0 mi East 6.9 mph - N/A   Scattered Clouds
12:53 PM 86.0 °F 88.8 °F 66.9 °F 53% 30.04 in 10.0 mi ENE 8.1 mph - N/A   Mostly Cloudy
1:53 PM 87.1 °F 90.6 °F 68.0 °F 53% 30.02 in 10.0 mi Variable 6.9 mph - N/A   Mostly Cloudy
2:53 PM 90.0 °F 93.6 °F 68.0 °F 48% 30.01 in 10.0 mi NE 9.2 mph - N/A   Mostly Cloudy
3:53 PM 88.0 °F 91.4 °F 68.0 °F 51% 29.99 in 10.0 mi ESE 5.8 mph - N/A   Mostly Cloudy
4:53 PM 87.1 °F 89.9 °F 66.9 °F 51% 29.98 in 10.0 mi East 5.8 mph - N/A   Overcast
5:53 PM 88.0 °F 90.7 °F 66.9 °F 49% 29.99 in 10.0 mi NE 9.2 mph - N/A   Overcast
6:53 PM 86.0 °F 88.8 °F 66.9 °F 53% 30.00 in 10.0 mi Variable 4.6 mph - N/A   Overcast
7:53 PM 84.0 °F 86.5 °F 66.9 °F 56% 30.02 in 10.0 mi ENE 5.8 mph - N/A   Mostly Cloudy
8:53 PM 82.9 °F 85.8 °F 68.0 °F 60% 30.04 in 10.0 mi ENE 4.6 mph - N/A   Mostly Cloudy
9:53 PM 82.0 °F 84.9 °F 68.0 °F 62% 30.05 in 10.0 mi East 5.8 mph - N/A   Scattered Clouds
10:53 PM 80.1 °F 82.9 °F 69.1 °F 69% 30.06 in 10.0 mi East 4.6 mph - N/A   Overcast
11:53 PM 79.0 °F - 70.0 °F 74% 30.06 in 10.0 mi Variable 3.5 mph - N/A   Overcast